www.pogodaiklimat.ru

Погода и климат >> Архив погоды >> Россия >> Приморский край >> Посьет


ПОГОДА в Посьете

  • Прогноз погоды в Посьете
  • Монитор погоды в Посьете
  • Климат города

АРХИВ ПОГОДЫ в Посьете

Время (UTC), дата Ветер
(напр.,м/с)
 
Видим.   Явления Облачность Т
(С)
Тd
(С)
f
(%)
Тe
(С)
Тes
(С)
Комфортность P
(гПа)
Po
(гПа)
Тmin
(С)
Tmax
(С)
R
(мм)
R24
(мм)
S
(см)
03 8.12 З 9-17
{20}
20 км ясно -12.6 -26.9 29 -23 -23 1026.6 1021.4
06 8.12 З 7-14
{17}
20 км ясно -11.1 -25.9 28 -20 -20 1025.4 1020.2
09 8.12 З 8-13
{15}
20 км ясно -11.9 -24.9 33 -22 -22 1026.9 1021.7 -11.0
12 8.12 З 6-12
{16}
20 км ясно -12.3 -25.3 33 -21 -21 1028.9 1023.7
15 8.12 З 8-16
{18}
20 км ясно -12.3 -25.2 33 -22 -22 1030.0 1024.8
18 8.12 З 7-12
{18}
20 км ясно -12.6 -25.3 34 -22 -22 1031.3 1026.1
21 8.12 З 5
{13}
20 км ясно -13.2 -24.6 38 -22 -22 1031.9 1026.6 -13.1
00 9.12 З 5
{10}
20 км ясно -12.0 -23.8 37 -20 -20 1032.6 1027.4 -13.3
03 9.12 З 8-14
{15}
20 км ясно -7.9 -23.7 27 -17 -16 1032.0 1026.8
06 9.12 З 6-13
{15}
20 км ясно -6.6 -22.9 26 -14 -13 1031.3 1026.2
09 9.12 З 4
{13}
20 км ясно -7.9 -19.7 38 -14 -14 1032.5 1027.3 -6.6
12 9.12 З 5 20 км ясно -8.8 -18.2 46 -16 -16 1034.3 1029.1
15 9.12 З 5 20 км ясно -9.5 -21.5 37 -17 -17 1035.2 1030.0
18 9.12 штиль 0 20 км ясно -9.9 -23.1 33 -10 -10 1036.2 1031.0
21 9.12 СВ 1 20 км ясно -10.6 -23.2 35 -13 -13 1036.4 1031.2 -10.6
00 10.12 СЗ 2 20 км ясно -9.7 -22.8 33 -14 -13 1037.4 1032.2 -11.2
03 10.12 З 4 20 км 8/0
[Cs]
-5.3 -21.8 26 -11 -9 1036.4 1031.3
06 10.12 З 5 20 км 3/0
[Cs]
-4.7 -20.6 28 -11 -10 1034.9 1029.8
09 10.12 СЗ 2 20 км ясно -5.8 -21.7 27 -9 -9 1035.6 1030.5 -4.4
12 10.12 СВ 2 20 км ясно -8.3 -18.5 44 -12 -12 1036.3 1031.1
15 10.12 С 2 20 км ясно -8.7 -20.7 37 -13 -13 1036.5 1031.3
18 10.12 СВ 2 20 км ясно -10.8 -18.3 54 -15 -15 1036.2 1031.0
21 10.12 С 2 20 км ясно -12.2 -20.2 51 -17 -17 1035.4 1030.1 -12.4
00 11.12 З 1 20 км 3/0
[Cs]
-12.0 -18.9 56 -14 -13 1035.5 1030.2 -13.4
03 11.12 ЮЗ 1 20 км 5/0
[Ci fib]
-7.5 -16.3 49 -9 -6 1032.9 1027.8
06 11.12 З 1 20 км 10/0
[As trans]
-6.4 -18.9 36 -8 -7 1030.3 1025.2
09 11.12 З 2 20 км 10/0
[As trans]
-6.8 -17.6 42 -11 -11 1029.9 1024.8 -6.0
12 11.12 З 1 20 км 10/0
[As trans]
-7.5 -17.4 45 -9 -9 1029.0 1023.8
15 11.12 СЗ 3 20 км 10/0
[As trans]
-7.4 -16.7 47 -13 -13 1028.4 1023.3
18 11.12 С 1 20 км 10/0
[As op]
-9.3 -17.3 52 -11 -11 1028.5 1023.3
21 11.12 С 2
{11}
20 км 3/0
[Cs]
-10.1 -19.4 46 -14 -14 1028.6 1023.4 -10.3
00 12.12 З 2 20 км ясно -9.4 -18.8 46 -14 -13 1029.6 1024.4 -10.8
03 12.12 З 6
{12}
20 км 6/0
[Cs]
-6.6 -19.5 35 -14 -13 1028.6 1023.5
06 12.12 З 5
{12}
20 км 4/0
[Cs]
-5.1 -19.6 31 -11 -11 1026.6 1021.5
09 12.12 СЗ 2
{11}
20 км ясно -7.9 -18.2 43 -12 -12 1027.7 1022.5 -5.1
12 12.12 С 2 20 км ясно -7.5 -21.3 32 -11 -11 1027.7 1022.6
15 12.12 штиль 0 20 км ясно -9.9 -17.5 54 -10 -10 1027.4 1022.2
18 12.12 СВ 2 20 км ясно -11.2 -19.7 49 -16 -16 1026.5 1021.3
21 12.12 СВ 1 20 км ясно -10.1 -19.1 48 -12 -12 1025.5 1020.3 -11.3
00 13.12 СВ 1 20 км 4/0
[Cs]
-9.1 -20.2 40 -11 -10 1025.2 1020.0
03 13.12 З 4 20 км 3/0
[Cs]
-5.3 -16.7 40 -11 -9 1024.1 1019.1
06 13.12 З 7-13
{13}
20 км 6/3 600 м
[Cb cap Ac lent Ci sp]
-3.9 -16.9 36 -11 -11 1023.7 1018.7
09 13.12 З 4-11
{14}
20 км ясно -5.9 -15.6 46 -12 -12 1026.6 1021.5 -3.3
12 13.12 З 5
{11}
20 км ясно -7.5 -15.9 51 -15 -15 1029.1 1024.0
15 13.12 З 5-10
{11}
20 км ясно -8.9 -17.8 48 -16 -16 1031.0 1025.8
18 13.12 З 7-12
{13}
20 км ясно -9.8 -18.4 49 -19 -19 1032.6 1027.4
21 13.12 З 7-11
{15}
20 км ясно -10.9 -18.3 54 -20 -20 1033.7 1028.5 -10.8
00 14.12 З 10-16
{16}
20 км ясно -10.8 -18.4 54 -22 -22 1034.7 1029.5 -11.2
03 14.12 З 7-12
{18}
20 км ясно -8.1 -19.6 39 -16 -15 1034.3 1029.1
06 14.12 З 5
{13}
20 км ясно -6.1 -19.8 33 -13 -12 1033.3 1028.2
09 14.12 З 4
{11}
20 км ясно -7.6 -18.6 41 -14 -14 1034.4 1029.2 -6.0
12 14.12 З 4 20 км ясно -8.4 -18.9 42 -15 -15 1034.6 1029.4
15 14.12 З 5 20 км ясно -8.9 -17.7 49 -16 -16 1034.7 1029.5
18 14.12 З 6
{11}
20 км ясно -9.1 -18.3 47 -17 -17 1033.7 1028.5
21 14.12 З 6 20 км ясно -9.7 -18.3 49 -18 -18 1032.5 1027.3 -10.2

 

Местоположение метеостанции Посьет (Приморский край, Россия): широта 42.65 долгота 130.80 высота над уровнем моря 39 м.

В архиве по умолчанию представлена погода в Посьете за последнюю неделю. Архивные данные за месяц целиком и за предыдущие месяцы, начиная с января 2011 года, Вы можете получить, выбрав интересующий диапазон дат из раскрывающегося списка и нажав кнопку "Ввод!".


*Определитесь, кто Вы:
робот инопланетянин человек

Внимание! Время в таблицах - всемирное. Для получения местного времени необходимо прибавить поправку, которая в Посьете равна 10 ч.

Смотрите также архив погоды в соседних городах и на ближайших метеорологических станциях:

Погода в Гамове (Приморский край, Россия) (36 км)
Погода в Senbong (КНДР) (49 км)
Погода в Барабаше (Приморский край, Россия) (78 км)
Погода на Мысе Назимова (Приморский край, Россия) (100 км)
Погода в Владивостоке (Приморский край, Россия) (104 км)
Погода в Yanji (Китай) (109 км)
Погода в Chongjin (КНДР) (127 км)
Погода в Полтавке (Приморский край, Россия) (159 км)
Погода в Тимирязевском (Приморский край, Россия) (163 км)
Погода в Многоудобном (Приморский край, Россия) (164 км)

Пояснения к столбцам:

Ветер - указаны скорость ветра в м/с - средняя за 10 мин, порывы в срок и между сроками (в фигурных скобках) и направление, откуда дует ветер: С - северный, СВ - северо-восточный, В - восточный, ЮВ - юго-восточный, Ю - южный, ЮЗ - юго-западный, З - западный, СЗ - северо-западный.
Видимость - горизонтальная дальность видимости в метрах или километрах. При видимости от 1 до 10 км при отсутствии осадков обычно наблюдается дымка, при ухудшении видимости до 1 км и менее - туман. В сухую погоду видимость может ухудшаться дымом, пылью или мглою.
Явления - указаны атмосферные явления, наблюдавшиеся в срок или в последний час перед сроком; фигурными скобками обозначены явления, наблюдавшиеся между сроками (за 1-3 часа до срока); квадратными скобками обозначены град или гололедные отложения с указанием их диаметра в мм.
Облачность - указаны через наклонную черту общая и нижняя облачность в баллах и высота нижней границы облаков в метрах; квадратными скобками обозначены формы облаков: Ci - перистые, Cs - перисто-слоистые, Cc - перисто-кучевые, Ac - высококучевые, As - высокослоистые, Sc - слоисто-кучевые, Ns - слоисто-дождевые, Cu - кучевые, Cb - кучево-дождевые. Подробнее классификацию облаков см. в Атласе облаков (PDF).
T - Температура воздуха - температура, измеренная на высоте 2 м над землей.
Td - Температура точки росы - температура, при понижении до которой содержащийся в воздухе водяной пар достигнет насыщения.
f - Относительная влажность воздуха - влажноcть воздуха, измеренная на высоте 2 м над землей.
Te - Эффективная температура - температура, которую ощущает одетый по сезону человек в тени. Характеристика душности погоды. При расчете учитывается влияние влажности воздуха и скорости ветра на теплоощущения человека.
Tes - Эффективная температура на солнце - температура, которую ощущает человек, с поправкой на солнечный нагрев. Характеристика знойности погоды. Зависит от высоты солнца над горизонтом, облачности и скорости ветра. Ночью, в пасмурную погоду, а также при ветре 12 м/с и более поправка равна нулю.
P - Атмосферное давление - приведенное к уровню моря атмосферное давление.
Po - Атмосферное давление - измеренное на уровне метеостанции атмосферное давление.
Tmin - Минимальная температура - минимум температуры воздуха на высоте 2 м над землей.
Tmax - Максимальная температура - максимум температуры воздуха на высоте 2 м над землей.
R - Количество осадков - Количество выпавших осадков за период времени, мм. При наведении курсора мыши на число - период времени, за который выпало указанное количество осадков.
R24 - Количество осадков - Количество выпавших осадков за 24 часа, мм.
S - Снежный покров - Высота снежного покрова, см. При наведении курсора мыши на число - состояние снежного покрова и степень покрытия местности в баллах.